INTELSAT 33E DEB, 61988

Orbit data source: Space-Track

INTELSAT 33E DEB, 61988 is space debris in GEO originally from a launch on Wed, 24 Aug 2016 UTC launched from the French Guiana (FRGUI). Debris objects in space refer to the collection of defunct objects orbiting the Earth. Examples of debris include non-operational satellites, rocket bodies, and fragments generated from explosions, collisions, or faulty payload assembly.

Loading next visibility...
Identifier
61988, 2016-053E
Orbit
GEO
Country
Flag of UnknownUnknown / ITSO
Related business
Manufacturer
Boeing/ES
Mission
Spacecraft
Bus & Motor
Unknown
Mass
Unknown
Launch date (UTC)
2016-08-24 (9 years ago)
Launch vehicle
Unknown
Launch site
French Guiana (FRGUI)
Object type
Payload
Rocket body
Debris
Shape & HBR
Unknown
Radar Cross Section
RCS unknown

Expand to show TLE details & history
Last TLE update: 2 days ago

TLE from 2 days ago
0 INTELSAT 33E DEB
1 61988U 16053E   25259.56253309 -.00000117  00000-0  00000-0 0  9993
2 61988   1.0287 103.5441 0049280  97.9040 263.6073  0.99834786  3309
Epoch: 2025-09-16T13:30Z
TLE epoch observation values (Epoch: 2025-09-16T13:30:02.858Z)
Latitude
0.00001°
Longitude
-93.77067°
Altitude
35,932.47 km
Speed
3.069 km/s
True Right ascension
06h 57m 58s
True Declination
0° 00' 00"
Sunlit
Object was in daylight at epoch
Visualization orbit readout
Latitude
Unknown
Longitude
Unknown
Altitude
Unknown
Speed
Unknown
Apparent Right ascension
Unknown
Apparent Declination
Unknown
Sunlit
N/A
Visualization observer readout
Local Sidereal Time
22:18:19
Azimuth
Unknown
Elevation
Unknown
Doppler factor
Unknown
Orbital elements
Apogee altitude
36,119.014 km
Perigee altitude
35,702.216 km
Semi-major axis
42,288.752 km
Eccentricity
0.00493
Inclination
1.0287°
RAAN
103.5441°
Arg. of periapsis
97.904°
True anomaly
263.0465°
Mean anomaly
263.6073°
Eccentric anomaly
263.32686°
Mean motion
0.24958 °/min
Orbital period
1,442.44 mins
BSTAR
0
Loading maneuver chart data...
Computing Atmospheric mass density...
Loading historical data...
Loading historical data...
Loading historical data...
Loading historical data...
Loading historical data...
Loading historical data...
Loading historical data...

Documentation

Showing up to 5 results
|